Location: Newark
(37.3167°N, 13.4667°E)
Time: 21:02:31
(UTC+00:00)

ISS - Visible Passes

Search period start: 22 July 2019 00:00
Search period end: 01 August 2019 00:00
Orbit: 409 x 418 km, 51.6° (Epoch: 22 July)

Date Brightness Start Highest point End Pass type
(mag) Time Alt. Az. Time Alt. Az. Time Alt. Az.
22 Jul -0.7 19:23:59 10° WNW 19:26:06 16° NNW 19:28:13 10° NNE visible
25 Jul -0.5 21:49:22 10° N 21:50:11 12° N 21:50:11 12° N visible
27 Jul -0.5 21:46:36 10° NNW 21:47:20 14° NNW 21:47:20 14° NNW visible
28 Jul -1.1 20:57:37 10° NNW 20:59:32 16° NNE 20:59:32 16° NNE visible
29 Jul -1.0 20:08:49 10° N 20:10:11 12° NNE 20:11:33 10° NE visible
29 Jul -0.5 21:44:10 10° NW 21:44:35 13° NW 21:44:35 13° NW visible
30 Jul -1.6 20:54:57 10° NNW 20:56:51 25° N 20:56:51 25° N visible
31 Jul -1.8 20:05:51 10° NNW 20:08:29 21° NNE 20:09:09 20° NE visible
